Location: Borowce
(50.8255°N, 19.6209°E)
Time: 16:48:25
(UTC+00:00)

Cosmos 1238 Rocket - Pass Details

Date: 19 May 2025
Orbit: 356 x 776 km, 82.9° (Epoch: 20 June)

Event Time Altitude Azimuth Distance (km) Brightness Sun altitude
Exits shadow 19:47:44 14° 134° (SE) 1,434 4.3 -9.9°
Maximum altitude 19:49:47 22° 91° (E) 1,064 3.9 -10.1°
Drops below altitude 10° 19:52:27 10° 39° (NE) 1,548 5.3 -10.4°
Sets 19:54:39 0° 23° (NNE) 2,358 6.5 -10.6°
